Find Galaxy 18

NORAD ID: 32951 Int'l Des: 2008-024 Owner: INTELD Country: US operational
HEOCIRCULARGSOGEO

实时位置

正在加载3D地球...

关于 Galaxy 18

正在加载描述...

即将过境

Passes for default location (London). Set your location on the main map for personalized predictions.

高度历史

Loading altitude history...

两行轨道根数

1 32951U 08024A 26106.22197550 .00000032 00000-0 00000-0 0 9995
2 32951 0.0193 257.2888 0003038 131.3040 132.6904 1.00271800 45239
Epoch: Apr 16, 2026 • Age: 12 hours

当前状态

高度 35777.3 km
速度 3.08 km/s
星下点 0.04°N, 123.03°W
发射日期 May 21, 2008
运行时间 17.9 years
类型 other

技术详情

分类 Payload
质量 4640.00 kg
干质量 2000.00 kg
总质量 4640.00 kg
长度 5.60 m
直径 2.80 m
跨度 31.00 m
形状 Box + 2 Pan
制造商 LOR
平台类型 SSL-1300
阶段状态 In Orbit
所有者/国家 INTELD/US

Most Searched